Retour au catalogue

FENGYUN 1C DEB

ActifSSO
NORAD 30887·DEBRIS·🇨🇳 China

Lancé May 10, 1999 depuis Taiyuan Satellite Launch Center

Loading…

Prochains Passages (prochaines 24 heures)

TLE

FraisSource: Space-Track

Époque: Sep 12, 2026, 21:07 UTC

1 30887U 99025AXZ 26255.88011507  .00001962  00000-0  36854-3 0  9998
2 30887  98.3341 312.7830 0260197 174.2913 186.1348 14.46354455 20826

Suivez FENGYUN 1C DEB en temps réel avec AllMySat

Download on the App Store